GPS BIIF-8 (PRN 03)

Last updated on Thu Nov 13 2025 00:03:18 GMT+0000 (Coordinated Universal Time)

1 40294U 14068A 25315.54706351 -.00000084 00000+0 00000+0 0 9996 2 40294 56.8357 39.3526 0060976 69.6991 290.9826 2.00562775 80841
UTC large
Height (km)
Speed (km/s)
/
Latitude / Longitude
Inclination (degrees)
Orbital Period (minutes)
Azimuth
Elevation
Range (km)
Doppler Factor

Next 0 passes for location: London (51.5072 / 0.1276)

Sorry there are no passes over London.